Probability
26 32 29 45 52 68 71 71 71 74 77 65 58 65 65 61 58 48 48 48 48 52 61 52 48 52 52 55 55 48 45 39 42 32 32 32 32 29 26 26 23 23 19
26 29 32 39 48 65 71 71 71 68 68 61 61 61 58 55 58 48 52 52 55 52 32 55 48 48 55 52 52 55 48 45 42 39 32 29 26 29 23 23 23 19 26
32 32 29 42 45 45 61 68 71 68 68 68 65 61 55 55 58 58 55 55 55 48 52 48 48 45 42 45 48 55 48 39 42 42 32 23 23 26 32 26 19 26 32
42 29 26 35 45 48 58 61 68 65 65 68 65 61 52 52 52 55 52 55 52 42 45 42 42 48 48 52 35 42 45 42 39 39 35 35 32 23 26 26 23 26 23
39 32 29 35 45 55 55 61 61 61 65 61 61 68 58 55 55 55 55 55 48 39 39 42 45 48 48 45 42 42 45 35 35 39 32 39 39 32 23 19 23 19 23
29 29 32 39 39 52 55 58 58 58 61 61 61 61 58 58 58 58 58 55 52 42 42 42 52 48 48 45 39 42 32 42 45 39 35 32 35 26 19 19 19 19 23
32 35 32 29 42 45 52 55 55 52 55 55 61 61 55 55 55 48 52 48 39 39 48 39 52 52 48 48 48 45 35 29 32 32 32 32 35 39 32 26 16 19 19
29 29 32 32 39 42 48 52 48 48 48 48 55 58 52 52 52 52 45 45 39 39 45 48 45 48 45 39 48 45 42 32 29 26 29 32 26 29 23 19 23 10 16
19 19 26 29 32 35 42 42 45 48 48 48 58 58 58 52 52 52 52 39 45 39 45 48 45 42 42 45 45 48 48 45 35 29 29 29 26 19 23 23 23 16 6
13 19 19 26 35 35 42 39 45 42 45 45 52 48 55 55 48 48 45 42 48 52 52 45 42 42 39 42 39 39 39 39 42 39 29 29 29 23 19 19 16 19 13
10 16 13 23 35 32 42 39 45 45 48 45 45 45 48 52 48 52 48 48 48 48 48 48 48 52 45 42 45 32 42 29 29 26 26 26 29 29 19 23 23 23 13
13 13 19 19 29 29 39 42 42 42 45 48 48 48 52 48 48 45 45 45 48 52 52 48 42 42 45 45 39 35 29 29 29 26 29 32 19 19 19 19 23 26 19
10 19 23 19 26 32 35 39 42 39 42 45 45 45 48 48 45 45 45 48 48 48 45 45 42 42 42 39 42 35 39 32 35 29 29 32 26 19 23 23 16 16 10
16 16 23 29 32 32 35 39 35 35 39 42 42 45 48 48 45 45 45 45 45 45 45 45 45 45 39 35 39 35 39 39 39 26 26 29 26 23 23 19 19 16 13
10 13 23 26 35 29 35 35 42 42 42 45 42 45 45 45 42 45 45 42 42 39 42 42 39 32 26 23 32 32 32 32 35 32 23 29 23 16 13 6 16 16 13
6 10 16 29 32 35 32 35 35 42 42 45 42 42 39 42 48 48 45 45 45 42 45 42 39 32 23 16 16 23 26 32 35 39 32 23 16 6 6 3 3 3 13
6 13 16 32 32 32 39 39 42 32 39 35 32 32 39 35 42 39 39 45 45 39 45 45 42 35 32 19 13 10 23 26 35 39 32 23 13 13 13 6 0 0 0
13 13 13 29 29 29 35 32 35 35 29 29 26 26 26 29 32 42 42 39 39 42 42 39 35 35 29 13 6 6 10 26 35 35 29 29 23 16 16 13 10 6 3
10 19 19 16 26 26 29 29 29 32 29 23 26 23 23 23 26 29 39 35 39 42 42 35 32 32 29 6 3 0 16 32 32 35 29 26 26 16 3 10 13 13 3
16 23 19 19 23 26 26 26 26 29 26 19 23 19 19 19 23 29 29 29 39 39 35 32 32 35 26 6 0 0 16 29 32 32 26 19 16 3 0 6 13 16 6
10 16 19 19 19 26 23 23 23 26 26 23 19 19 19 19 19 19 35 26 26 29 29 29 29 26 26 6 0 0 16 16 19 19 19 10 3 0 0 3 3 3 0
10 13 13 13 19 23 23 23 23 23 23 23 19 19 19 19 19 26 26 23 29 29 26 26 29 26 19 13 3 0 3 10 19 16 16 10 0 0 0 0 0 0 0
10 13 13 16 23 19 19 23 26 23 23 23 19 23 19 23 19 16 16 19 16 19 23 26 29 23 23 13 6 0 0 0 6 13 3 3 0 0 0 0 0 0 0
6 16 16 16 19 16 19 23 23 23 23 23 19 19 19 16 16 19 16 16 16 19 19 19 23 19 16 19 10 0 0 0 0 0 0 0 0 0 0 0 0 0 0
10 13 16 16 16 16 16 19 23 23 23 16 16 13 13 16 16 16 16 16 16 16 19 19 19 19 19 13 10 10 10 6 0 0 3 3 6 0 0 0 0 0 0
10 10 13 16 10 10 13 13 13 19 16 16 16 13 13 10 13 13 13 3 6 0 3 6 6 10 6 0 0 0 0 3 3 3 3 3 3 0 3 6 6 3 3
Height
5872 5872 5872 5871 5871 5872 5872 5872 5872 5872 5872 5871 5871 5871 5870 5870 5869 5868 5867 5866 5865 5864 5863 5862 5862 5861 5861 5861 5861 5861 5860 5860 5860 5860 5859 5859 5859 5858 5858 5858 5858 5858 5858
5867 5867 5868 5867 5867 5868 5869 5869 5869 5869 5869 5869 5869 5868 5868 5867 5867 5866 5865 5864 5863 5862 5862 5861 5860 5860 5859 5859 5859 5859 5858 5858 5858 5858 5857 5857 5857 5856 5856 5855 5856 5856 5856
5863 5863 5863 5863 5862 5864 5864 5865 5865 5865 5866 5866 5866 5866 5865 5865 5864 5864 5863 5862 5861 5860 5860 5859 5859 5858 5857 5857 5857 5856 5856 5856 5856 5855 5855 5855 5855 5855 5855 5854 5854 5854 5854
5858 5859 5859 5859 5859 5860 5860 5860 5861 5861 5862 5863 5863 5863 5863 5862 5862 5861 5860 5860 5859 5858 5858 5857 5856 5856 5855 5854 5854 5854 5854 5853 5853 5853 5852 5852 5852 5852 5852 5852 5852 5851 5851
5852 5853 5854 5854 5855 5856 5857 5857 5857 5857 5858 5859 5859 5859 5859 5859 5858 5858 5857 5857 5856 5855 5855 5854 5854 5853 5852 5852 5851 5851 5851 5851 5850 5850 5849 5849 5849 5849 5849 5849 5848 5848 5848
5847 5848 5849 5849 5850 5851 5852 5853 5853 5853 5853 5854 5854 5855 5855 5855 5855 5854 5854 5853 5852 5852 5852 5851 5851 5850 5850 5849 5848 5848 5847 5847 5847 5846 5846 5846 5846 5846 5845 5845 5845 5845 5844
5840 5842 5844 5844 5844 5845 5846 5847 5848 5848 5849 5849 5850 5850 5850 5850 5850 5850 5850 5849 5849 5849 5848 5848 5847 5846 5846 5846 5845 5844 5844 5843 5843 5843 5842 5842 5842 5842 5842 5841 5841 5840 5841
5834 5836 5837 5838 5839 5840 5841 5842 5843 5843 5844 5845 5845 5845 5846 5845 5846 5845 5845 5845 5845 5844 5844 5843 5843 5843 5842 5842 5841 5841 5840 5839 5839 5839 5838 5838 5838 5838 5837 5837 5836 5836 5836
5827 5829 5831 5831 5832 5834 5835 5836 5837 5838 5839 5840 5841 5841 5841 5841 5841 5841 5841 5840 5840 5840 5839 5839 5839 5838 5838 5838 5837 5836 5836 5835 5835 5835 5834 5834 5833 5833 5833 5832 5831 5831 5831
5821 5822 5824 5825 5825 5827 5828 5830 5831 5832 5833 5834 5835 5835 5836 5836 5836 5836 5836 5835 5835 5835 5835 5835 5834 5834 5833 5833 5832 5832 5831 5831 5830 5830 5829 5829 5828 5828 5828 5827 5826 5826 5826
5813 5815 5816 5818 5818 5819 5821 5823 5825 5826 5827 5828 5829 5830 5830 5830 5830 5830 5830 5830 5830 5830 5830 5829 5829 5828 5828 5827 5827 5826 5826 5825 5824 5824 5824 5823 5823 5823 5822 5822 5821 5820 5820
5805 5807 5808 5809 5811 5812 5813 5816 5818 5819 5821 5823 5823 5824 5824 5825 5825 5825 5825 5825 5825 5824 5824 5824 5823 5823 5822 5822 5821 5820 5820 5819 5819 5818 5818 5818 5817 5817 5816 5816 5815 5815 5815
5796 5797 5799 5800 5803 5804 5806 5809 5811 5812 5814 5815 5816 5817 5818 5819 5819 5819 5819 5819 5819 5818 5818 5817 5817 5817 5816 5816 5815 5814 5814 5813 5813 5812 5811 5811 5811 5810 5809 5809 5809 5809 5809
5787 5789 5789 5791 5794 5797 5799 5801 5803 5805 5807 5808 5809 5810 5811 5812 5812 5813 5813 5813 5812 5812 5811 5811 5811 5810 5810 5809 5808 5808 5807 5807 5806 5806 5805 5804 5804 5803 5802 5802 5802 5802 5802
5780 5781 5781 5783 5787 5790 5792 5793 5796 5797 5799 5801 5802 5803 5804 5804 5805 5805 5806 5806 5806 5805 5805 5805 5804 5804 5803 5802 5802 5801 5801 5800 5800 5799 5798 5797 5796 5796 5795 5795 5794 5794 5794
5771 5773 5774 5776 5779 5782 5784 5785 5787 5789 5791 5793 5794 5795 5796 5797 5797 5798 5798 5799 5798 5798 5798 5798 5797 5797 5796 5796 5795 5794 5794 5794 5793 5792 5791 5790 5789 5788 5787 5787 5787 5787 5786
5764 5766 5767 5769 5773 5775 5776 5777 5779 5781 5783 5785 5786 5787 5788 5789 5790 5790 5791 5791 5791 5791 5790 5790 5790 5790 5789 5789 5788 5787 5787 5787 5786 5785 5784 5783 5782 5781 5780 5779 5779 5778 5778
5757 5759 5761 5763 5766 5768 5769 5769 5771 5773 5775 5776 5778 5779 5780 5781 5782 5782 5783 5783 5783 5783 5783 5783 5783 5783 5782 5781 5780 5780 5779 5779 5779 5778 5777 5776 5775 5774 5773 5772 5772 5771 5770
5751 5752 5754 5757 5758 5760 5762 5762 5764 5766 5767 5768 5769 5771 5772 5773 5774 5775 5775 5775 5776 5776 5776 5776 5776 5775 5774 5774 5773 5772 5772 5772 5771 5771 5770 5769 5768 5767 5765 5765 5764 5764 5763
5745 5746 5748 5749 5751 5752 5754 5756 5757 5758 5759 5761 5762 5763 5764 5765 5766 5767 5767 5768 5768 5768 5768 5768 5768 5767 5767 5766 5766 5765 5765 5765 5764 5763 5763 5761 5760 5759 5758 5757 5757 5756 5755
5737 5739 5741 5742 5744 5745 5747 5749 5749 5751 5752 5753 5755 5756 5757 5757 5758 5759 5760 5760 5760 5760 5760 5760 5760 5759 5759 5759 5758 5758 5757 5757 5756 5756 5755 5754 5753 5752 5750 5749 5749 5748 5747
5730 5732 5733 5735 5737 5738 5740 5741 5743 5744 5745 5746 5748 5748 5749 5750 5751 5751 5752 5752 5752 5753 5753 5752 5752 5752 5752 5751 5751 5750 5750 5749 5749 5748 5747 5746 5745 5744 5743 5742 5741 5740 5739
5723 5724 5726 5728 5730 5731 5733 5734 5735 5736 5737 5739 5740 5741 5742 5742 5743 5744 5744 5745 5745 5745 5745 5745 5745 5745 5745 5744 5744 5743 5742 5741 5741 5740 5739 5738 5737 5736 5735 5734 5733 5732 5731
5716 5717 5719 5721 5723 5724 5726 5727 5728 5729 5730 5732 5733 5734 5734 5735 5735 5736 5737 5737 5738 5738 5738 5738 5738 5737 5737 5737 5736 5735 5734 5733 5732 5732 5731 5730 5729 5728 5727 5726 5725 5724 5723
5709 5711 5713 5714 5716 5717 5718 5719 5721 5722 5723 5724 5725 5726 5727 5728 5728 5729 5729 5730 5731 5730 5730 5730 5730 5730 5729 5729 5728 5727 5726 5725 5724 5723 5722 5721 5721 5720 5719 5718 5717 5716 5715
5702 5704 5705 5707 5709 5710 5711 5712 5713 5714 5715 5716 5717 5718 5719 5720 5720 5721 5722 5722 5723 5723 5722 5722 5722 5721 5721 5720 5719 5719 5718 5717 5716 5715 5714 5713 5712 5711 5711 5710 5709 5708 5707
Wind_Speed
19 18 18 18 18 17 16 16 16 16 15 14 13 13 13 13 13 13 12 11 11 12 12 11 10 9 9 9 9 10 9 9 9 9 10 10 10 10 10 9 8 9 9
21 20 19 19 19 18 18 18 18 17 16 15 14 13 13 14 14 13 13 12 12 12 12 12 10 10 10 10 10 10 10 10 10 10 10 10 10 10 11 10 9 9 10
22 21 21 21 19 19 19 19 19 18 17 17 16 15 16 16 15 15 14 13 13 13 13 12 12 11 11 11 11 11 11 11 11 11 11 10 10 10 10 11 11 11 10
23 22 22 22 22 20 19 19 20 19 19 19 18 17 17 16 16 16 16 15 14 14 14 14 13 12 11 11 11 11 12 12 12 12 12 11 11 11 11 11 12 12 12
25 24 22 23 22 22 21 20 20 21 20 20 20 19 18 18 18 18 17 17 16 15 15 14 14 13 12 12 12 12 13 13 13 12 12 12 12 12 12 12 13 13 13
27 25 23 23 24 23 22 22 22 22 22 21 20 20 19 20 20 19 18 17 17 16 16 15 15 14 13 13 13 13 14 14 14 13 13 13 13 13 14 14 14 15 15
28 27 25 24 25 24 24 23 22 22 22 22 21 21 20 21 21 20 19 18 18 17 17 17 16 16 15 14 14 14 14 15 15 15 15 15 15 15 16 16 16 15 16
27 28 27 26 26 25 25 24 24 23 23 22 21 20 20 21 21 20 20 20 19 19 18 17 17 17 16 15 15 15 15 16 16 16 16 16 16 17 17 17 17 17 17
28 27 27 27 27 25 25 25 24 24 23 23 22 22 21 21 21 21 21 21 21 20 19 19 19 19 18 17 17 17 17 17 18 18 18 18 18 18 18 18 18 18 18
28 28 28 27 28 27 26 26 25 24 24 24 24 23 22 22 22 22 22 21 21 21 21 21 20 20 20 19 19 19 20 20 19 19 20 20 20 20 20 20 20 19 19
29 29 29 28 29 30 28 28 27 26 25 25 25 24 23 23 23 23 23 22 22 22 21 22 22 22 21 21 21 21 21 21 21 21 21 21 21 21 22 22 22 21 21
30 30 30 31 31 31 30 29 28 27 27 27 27 26 25 24 24 23 23 23 23 23 24 24 24 23 23 23 23 23 22 22 22 22 22 22 23 23 23 23 23 22 23
31 31 32 31 31 32 31 29 29 29 29 28 29 28 27 26 25 25 25 25 25 24 24 25 25 25 24 24 24 23 23 23 22 23 23 23 24 24 25 24 24 24 24
31 32 31 31 31 31 30 29 30 30 30 29 29 28 27 26 26 25 26 26 26 26 26 26 26 25 25 24 24 24 24 23 23 24 25 25 25 26 26 26 26 26 25
31 30 31 31 30 31 30 30 30 30 30 30 29 29 28 27 26 26 27 27 27 27 27 26 26 26 25 25 24 24 24 24 24 25 26 26 26 26 26 26 27 26 26
30 31 32 31 29 30 30 30 30 30 30 29 30 30 29 28 27 27 28 28 28 27 27 27 26 26 26 26 25 26 25 25 25 26 26 27 27 28 27 27 27 27 27
31 30 31 31 30 30 28 28 29 29 30 30 30 30 30 29 29 29 28 28 28 27 27 26 26 27 27 27 27 27 27 26 26 26 26 26 27 27 28 27 27 27 27
29 30 30 30 30 30 30 30 29 29 29 29 30 29 28 28 28 28 28 28 28 28 27 26 26 27 27 27 27 27 27 26 26 26 27 27 27 27 28 28 28 27 27
29 29 29 29 29 30 29 29 29 29 29 29 29 28 27 27 27 27 27 28 28 28 28 27 27 27 27 26 26 26 26 27 27 27 27 27 27 27 28 28 28 28 28
30 30 30 30 30 30 29 28 28 28 28 27 27 27 27 27 27 27 27 27 27 28 28 27 26 26 26 26 26 27 27 27 27 27 28 28 28 28 28 28 28 28 28
30 29 29 29 29 29 28 28 28 28 27 25 25 25 26 26 26 26 27 27 27 27 27 26 26 26 26 27 27 27 27 27 27 28 28 28 28 28 28 28 28 28 28
29 28 28 27 28 28 28 27 27 27 26 26 25 24 25 25 26 26 27 27 27 26 26 26 26 26 26 26 26 27 27 27 28 28 28 28 28 28 28 28 28 28 28
27 26 26 26 26 27 27 27 26 25 25 25 26 25 26 26 26 26 26 27 27 26 26 27 26 26 26 26 27 27 28 28 28 28 29 29 29 28 28 28 28 27 27
25 25 25 26 26 26 26 26 26 25 25 26 26 26 26 26 26 25 25 26 27 26 26 26 26 26 27 27 27 28 28 28 28 29 29 29 29 29 28 28 27 27 27
25 25 25 25 25 25 25 26 27 27 27 27 27 27 27 27 26 25 25 26 27 27 26 26 27 27 27 28 28 28 28 28 28 28 28 28 28 28 28 28 28 27 27
23 24 24 24 25 26 26 27 28 28 28 28 28 28 28 27 26 26 26 27 27 27 27 28 28 28 28 28 29 29 29 30 30 29 29 28 28 28 28 27 27 27 27
Wind_Direction
270 272 274 275 276 277 276 278 279 283 283 285 290 291 294 297 301 304 304 301 301 299 301 299 299 298 295 290 291 293 292 295 297 299 298 296 294 294 295 299 302 303 303
268 269 271 271 272 273 273 275 276 278 278 278 282 288 291 293 297 301 302 300 301 301 301 297 292 293 291 289 290 289 288 293 296 298 297 294 292 292 293 293 297 299 299
264 267 268 271 270 269 270 271 275 276 274 275 278 285 289 291 294 297 297 299 300 297 298 298 292 292 289 288 287 287 287 290 293 292 290 289 289 289 288 289 294 297 297
264 265 266 267 269 270 268 267 271 272 271 273 275 280 286 288 290 292 293 294 296 296 293 295 295 291 293 292 289 286 285 286 287 287 286 286 287 283 284 287 290 291 292
267 266 263 265 266 267 269 268 270 269 269 272 274 276 280 285 287 289 291 292 293 295 292 291 294 294 294 296 293 289 285 286 286 288 289 289 286 284 283 285 286 287 287
265 266 264 266 266 266 267 268 269 269 268 270 273 273 277 281 283 285 287 288 290 293 294 292 288 287 291 293 293 290 286 285 286 286 286 287 286 285 284 283 283 283 283
263 265 263 264 265 265 266 265 267 268 269 269 271 271 274 279 280 281 283 284 286 289 290 289 287 285 287 289 289 289 287 283 283 283 282 283 284 286 287 286 283 281 280
263 264 263 262 262 263 263 265 264 265 267 269 270 270 274 277 278 279 280 280 282 284 286 286 286 286 286 285 285 286 286 283 281 282 282 282 283 285 286 287 286 281 280
263 263 261 261 261 260 262 264 263 262 264 266 270 272 272 276 278 280 278 279 279 281 283 283 284 285 284 283 282 283 284 283 280 281 282 284 285 285 284 286 287 285 283
264 261 259 259 260 259 259 260 261 260 261 265 269 272 272 275 276 279 279 278 279 280 282 282 283 283 281 282 283 283 281 281 280 279 279 281 282 283 284 285 287 285 285
262 261 259 257 259 258 257 258 259 258 260 262 265 269 271 273 274 275 276 276 277 279 280 280 281 281 281 280 281 281 280 281 281 279 278 278 280 280 282 284 283 283 284
261 260 259 258 258 256 255 257 258 258 260 262 263 265 268 270 272 273 274 274 275 278 280 280 280 280 281 281 280 280 279 280 280 278 277 277 278 279 281 282 281 281 282
258 258 258 258 257 256 256 257 257 259 261 264 266 265 265 268 269 270 272 273 275 278 280 280 280 280 281 281 280 279 279 280 279 277 278 279 278 279 280 279 279 280 282
258 258 257 257 256 256 256 257 257 258 260 263 266 265 265 267 269 269 270 272 274 277 279 280 279 280 281 280 279 278 279 280 279 278 280 281 281 280 278 278 278 280 281
257 256 254 254 254 255 255 257 257 258 260 262 264 265 266 268 269 269 269 272 274 276 277 278 279 280 280 280 278 278 278 280 280 280 280 281 281 281 279 278 277 278 279
255 254 253 251 254 256 255 256 257 258 260 262 264 265 266 268 268 269 269 271 274 275 277 277 277 278 279 279 278 278 278 280 282 283 282 282 282 281 281 280 278 278 278
257 255 253 254 255 255 255 256 258 258 259 261 265 267 266 267 267 267 269 272 273 274 277 279 278 278 278 279 277 278 278 280 281 282 283 283 283 282 282 282 281 280 280
255 255 254 252 254 256 257 259 259 260 260 262 264 264 264 266 267 267 268 270 272 273 275 277 277 278 279 279 277 277 278 279 280 281 283 284 285 285 283 284 284 282 281
255 255 254 254 255 256 257 259 259 260 260 261 261 262 263 264 266 267 269 270 271 272 273 275 275 277 278 279 278 277 277 279 279 281 283 283 285 286 285 284 284 285 283
254 255 255 255 256 257 256 256 258 259 260 261 261 262 263 263 265 267 269 269 270 273 275 275 275 276 276 277 278 277 277 279 280 281 283 284 285 286 286 285 285 285 285
255 256 255 254 254 255 256 257 259 260 260 261 262 263 263 263 264 267 269 270 272 274 274 274 275 277 276 276 277 277 279 280 281 282 283 284 285 286 286 286 285 285 285
255 256 253 251 252 254 255 256 256 258 259 260 261 262 264 264 265 267 268 270 272 273 272 272 274 275 275 276 277 278 280 280 281 282 282 283 285 286 286 285 285 285 285
255 254 253 253 253 254 255 255 255 257 259 261 262 262 263 264 266 267 267 269 271 273 273 273 273 275 275 276 277 278 280 281 281 283 283 283 284 286 287 287 285 284 283
252 250 252 253 253 253 253 254 256 258 260 262 264 263 263 265 266 267 268 270 272 272 273 273 274 275 276 276 277 279 280 281 282 283 283 284 284 285 286 287 285 283 283
248 250 252 252 253 254 255 257 258 259 261 262 263 262 262 265 265 266 268 270 273 274 274 275 276 277 277 277 278 279 280 281 282 283 284 285 285 285 284 284 285 285 283
251 252 252 253 256 257 258 260 260 260 261 262 263 264 261 263 264 265 268 271 273 274 276 277 277 277 277 277 278 278 279 280 281 282 284 284 284 284 283 282 283 284 283